Regional Weather Roundup
Issued by NWS Goodland, KS

Home | Current Version | Previous Version | Graphics & Text | Print | Product List | Glossary On
Versions: 1 2 3 4 5 6 7 8 9 10 11 12 13 14 15 16 17 18 19 20 21 22 23 24 25 26 27 28 29 30 31 32 33 34 35 36 37 38 39 40 41 42 43 44 45 46 47 48 49 50
000
ASUS43 KGLD 291808
RWRGLD

GOODLAND FORECAST AREA HOURLY WEATHER ROUNDUP
NATIONAL WEATHER SERVICE GOODLAND KS
1200 PM MDT SAT AUG 29 2015

...OFFICIAL OBSERVATIONS...

CITY           SKY/WX    TMP DP  RH WIND       PRES   REMARKS
GOODLAND KS    SUNNY     85  44  23 VRB5      30.19F
HILL CITY KS   SUNNY     85  59  41 N6        30.12F
IMPERIAL NEB   SUNNY     88  55  32 W9        30.15F
MCCOOK NEB     SUNNY     86  57  37 VRB6      30.13F
AKRON CO       SUNNY     84  42  22 S12       30.23F
BURLINGTON CO  SUNNY     83  50  31 SW5       30.23F
LIMON CO       SUNNY     80  44  27 S7        30.29F
$$

...UNOFFICIAL OBSERVATIONS...

CITY           SKY/WX    TMP DP  RH WIND       PRES   REMARKS
COLBY KS       SUNNY     90  46  22 SE6       30.17F
GOVE KS          N/A     87  32  14 MISG        N/A
LENORA KS        N/A     84  32  15 MISG        N/A
NORTON KS      SUNNY     81  54  39 N3        30.11
SHARON SPRINGS   N/A     86  51  29 CALM        N/A
TRENTON NEB      N/A     86  32  14 CALM        N/A
YUMA CO          N/A     85  49  28 S5G12       N/A
$$


USA.gov is the U.S. government's official web portal to all federal, state and local government web resources and services.